HJ3GNC-17 Weather Reports


time (UTC)temp
C
wind
direction
speed
KPH
gust
KPH
rain 1hr
cm
rain 24hr
cm
rain mn
cm
humidity
%
barometer
mb
20260507122324 6 122 0.0 0.0 0.00 0.00 0.00 97 1020.0
20260507120728 6 122 0.0 0.0 0.00 0.00 0.00 97 1020.0
20260507115058 6 0 0.0 0.0 0.00 0.00 0.00 97 1020.0
20260507113515 6 0 0.0 0.0 0.00 0.00 0.00 97 1020.0
20260507111931 6 0 0.0 0.0 0.00 0.00 0.00 97 1020.0
20260507110339 6 70 0.0 0.0 0.00 0.00 0.00 96 1020.0
20260507104754 6 70 0.0 0.0 0.00 0.00 0.00 95 1020.0
20260507103213 6 80 0.0 0.0 0.00 0.00 0.00 94 1020.0
20260507101632 6 80 0.0 0.0 0.00 0.00 0.00 92 1020.0
20260507100052 6 124 0.0 0.0 0.00 0.00 0.00 90 1020.0
20260507094512 6 124 0.0 0.0 0.00 0.00 0.00 90 1020.0
20260507092928 6 123 0.0 0.0 0.00 0.00 0.00 90 1020.0
20260507091345 6 123 0.0 0.0 0.00 0.00 0.00 90 1019.0
20260507085800 7 350 0.0 0.0 0.00 0.00 0.00 90 1019.0
20260507084215 7 350 0.0 0.0 0.00 0.00 0.00 90 1019.0
20260507082633 7 350 0.0 0.0 0.00 0.00 0.00 90 1020.0
20260507081047 7 350 0.0 0.0 0.00 0.00 0.00 90 1020.0
20260507075501 7 0 0.0 0.0 0.00 0.00 0.00 90 1020.0
20260507073921 7 0 0.0 0.0 0.00 0.00 0.00 90 1020.0
20260507072333 7 0 0.0 0.0 0.00 0.00 0.00 90 1020.0
20260507070753 7 0 0.0 0.0 0.00 0.00 0.00 90 1020.0
20260507065201 7 60 0.0 0.0 0.00 0.00 0.00 90 1020.0
20260507063616 7 60 0.0 0.0 0.00 0.00 0.00 90 1020.0
20260507062033 8 60 0.0 0.0 0.00 0.00 0.00 89 1021.0
20260507060450 8 40 0.0 0.0 0.00 0.00 0.00 88 1021.0
20260507054907 8 40 0.0 0.0 0.00 0.00 0.00 87 1021.0
20260507053327 8 40 0.0 0.0 0.00 0.00 0.00 86 1021.0
20260507051745 8 40 0.0 0.0 0.00 0.00 0.00 86 1021.0
20260507050200 8 20 0.0 0.0 0.00 0.00 0.00 84 1021.0
20260507044607 8 20 0.0 0.0 0.00 0.00 0.00 82 1021.0
20260507043020 8 20 0.0 0.0 0.00 0.00 0.00 80 1021.0
20260507041434 8 20 0.0 0.0 0.00 0.00 0.00 76 1022.0
20260507035847 8 70 0.0 0.0 0.00 0.00 0.00 71 1022.0
20260507034301 8 70 0.0 0.0 0.00 0.00 0.00 71 1022.0
20260507032717 9 70 0.0 0.0 0.00 0.00 0.00 71 1021.0
20260507031132 9 70 0.0 0.0 0.00 0.00 0.00 71 1021.0
20260507023945 12 110 0.0 0.0 0.00 0.00 0.00 58 1021.0
20260507022400 12 110 0.0 0.0 0.00 0.00 0.00 58 1021.0
20260507020817 12 110 0.0 0.0 0.00 0.00 0.00 58 1021.0
20260507015227 12 130 0.0 0.0 0.00 0.00 0.00 63 1021.0
20260507013643 12 130 0.0 0.0 0.00 0.00 0.00 63 1021.0
20260507012058 12 130 0.0 0.0 0.00 0.00 0.00 63 1020.0
20260507010514 12 130 0.0 0.0 0.00 0.00 0.00 63 1020.0
20260507004926 13 120 0.0 0.0 0.00 0.00 0.00 51 1020.0
20260507003340 13 120 0.0 0.0 0.00 0.00 0.00 51 1019.0
20260507001756 13 120 0.0 0.0 0.00 0.00 0.00 51 1018.0
20260507000212 15 130 0.0 0.0 0.00 0.00 0.00 48 1018.0
20260506234624 15 130 0.0 0.0 0.00 0.00 0.00 48 1018.0
20260506233035 12 124 0.0 0.0 0.00 0.00 0.00 85 1017.0
20260506231450 12 121 0.0 0.0 0.00 0.00 0.00 85 1016.0
20260506225852 12 121 0.0 0.0 0.00 0.00 0.00 85 1016.0
20260506224259 12 121 0.0 0.0 0.00 0.00 0.00 85 1016.0
20260506222710 12 122 0.0 0.0 0.00 0.00 0.00 85 1015.0
20260506221115 12 122 0.0 0.0 0.00 0.00 0.00 85 1015.0
20260506215532 12 122 0.0 0.0 0.00 0.00 0.00 85 1015.0
20260506212252 12 122 0.0 0.0 0.00 0.00 0.00 85 1014.0
20260506210620 12 122 0.0 0.0 0.00 0.00 0.00 85 1014.0
20260506205038 12 122 0.0 0.0 0.00 0.00 0.00 85 1014.0
20260506203449 12 122 0.0 0.0 0.00 0.00 0.00 85 1014.0
20260506201904 12 113 0.0 0.0 0.00 0.00 0.00 85 1015.0
20260506200308 12 113 0.0 0.0 0.00 0.00 0.00 85 1015.0
20260506194718 12 113 0.0 0.0 0.00 0.00 0.00 85 1015.0
20260506193135 12 113 0.0 0.0 0.00 0.00 0.00 85 1015.0
20260506191548 12 128 0.0 0.0 0.00 0.00 0.00 84 1016.0
20260506185942 12 128 0.0 0.0 0.00 0.00 0.00 82 1016.0
20260506184353 13 120 0.0 0.0 0.00 0.00 0.00 76 1017.0
20260506182806 10 127 0.0 0.0 0.00 0.00 0.00 92 1018.0
20260506181224 10 127 0.0 0.0 0.00 0.00 0.00 92 1018.0
20260506175610 10 127 0.0 0.0 0.00 0.00 0.00 92 1018.0
20260506174021 10 134 0.0 0.0 0.00 0.00 0.00 92 1018.0
20260506172433 10 88 0.0 0.0 0.00 0.00 0.00 92 1018.0
20260506170851 10 93 0.0 0.0 0.00 0.00 0.00 92 1018.0
20260506165307 10 88 0.0 0.0 0.00 0.00 0.00 92 1018.0
20260506163722 10 93 0.0 0.0 0.00 0.00 0.00 92 1019.0
20260506162108 10 78 0.0 0.0 0.00 0.00 0.00 92 1019.0
20260506160520 10 78 0.0 0.0 0.00 0.00 0.00 92 1019.0
20260506154929 10 78 0.0 0.0 0.00 0.00 0.00 92 1019.0
20260506153338 10 78 0.0 0.0 0.00 0.00 0.00 92 1019.0
20260506151744 11 35 0.0 0.0 0.00 0.00 0.00 92 1019.0
20260506150057 11 90 0.0 0.0 0.00 0.00 0.00 92 1019.0
20260506144505 11 90 0.0 0.0 0.00 0.00 0.00 93 1019.0
20260506142922 11 90 0.0 0.0 0.00 0.00 0.00 95 1019.0
20260506141330 11 90 0.0 0.0 0.00 0.00 0.00 97 1019.0
20260506135739 11 70 0.0 0.0 0.00 0.00 0.00 99 1019.0
20260506134151 11 70 0.0 0.0 0.00 0.00 0.00 99 1019.0
20260506132607 9 70 0.0 0.0 0.00 0.00 0.00 98 1019.0
20260506131019 8 0 0.0 0.0 0.00 0.00 0.00 98 1019.0
20260506125435 9 0 0.0 0.0 0.00 0.00 0.00 98 1019.0
20260506123847 8 20 0.0 0.0 0.00 0.00 0.00 98 1019.0